Location: Banios
(43.0451°N, 0.2335°E)
Time: 08:23:51
(UTC+00:00)

Envisat - Visible Passes

Search period start: 17 April 2021 00:00
Search period end: 27 April 2021 00:00
Orbit: 764 x 766 km, 98.1° (Epoch: 16 April)

Date Brightness Start Highest point End Pass type
(mag) Time Alt. Az. Time Alt. Az. Time Alt. Az.
19 Apr 5.9 04:16:05 10° NE 04:18:54 15° E 04:21:42 10° ESE visible
22 Apr 6.2 04:05:44 10° ENE 04:07:18 11° E 04:08:53 10° ESE visible
24 Apr 5.7 04:29:16 10° NE 04:33:00 20° E 04:36:42 10° SE visible
